Kezdőlap
METAR-TAF:

METAR-TAF

Repülőterek :

Albertus Airport

Freeport, Illinois, Amerikai Egyesült Államok

földrajzi szélesség: 42-14-47N, földrajzi hosszúság: 089-34-56W, magasság: 262 m

Jelenlegi meteorológiai megfigyelések

A jelentés 25 perccel ezelõtt készült, 10:35 UTC
Keleti szél 5 kt
Hőmérséklet 9°C
Páratartalom 87%
Légköri nyomás 1016 hPa
Látótávolság: 16.1 km
Derült ég

METAR: KFEP 171035Z AUTO 09005KT 10SM CLR 09/07 A3001 RMK AO2 T00900070

Idő: 06:00 (11:00 UTC)


TAF: hiányzik

Meteorológiai megfigyelések és előrejelzések több, mint 4000 repülőtéren (METAR és TAF jelentéseket).

A térképen piros és sárga pontok jelzik az elérhető meteorológiai állomásokat.

Mozgassa az egeret a pont fölött, hogy megjelenjen az állomás neve.

Azután kattintson az időjárási megfigyelések és előrejelzések megtekintéséhez.

A térkép megváltoztatása: kattintson a fekete keresztel jelölt zöld gombra ráközelítéshez, a vonallal jelölt zöld gombra távolításhoz, vagy a zöld nyilakra a szomszédos térképek eléréséhez.


METAR-TAF: